This is the latest recevied weather packets stored in our database for station/object N7WSS. If no packets are shown the sender has not sent any weather packets the latest 1 day(s).
| Time | Temp. | Humidity | Pressure | Rain* | Wind** | Luminosity | Snow |
|---|---|---|---|---|---|---|---|
| 1777989668 | 15° C | 82% | 1010.4 hPa | 0 mm | 0 m/s | - | - |
| 1777989364 | 15° C | 83% | 1010.4 hPa | 0 mm | 0 m/s | - | - |
| 1777989060 | 14.44° C | 83% | 1010.2 hPa | 0 mm | 0 m/s | - | - |
| 1777988756 | 14.44° C | 84% | 1010.2 hPa | 0 mm | 0 m/s | - | - |
| 1777988454 | 14.44° C | 85% | 1010.2 hPa | 0 mm | 0.45 m/s, 283° | - | - |
| 1777988150 | 14.44° C | 87% | 1010.3 hPa | 0 mm | 0 m/s | - | - |
| 1777987846 | 14.44° C | 86% | 1010.4 hPa | 0 mm | 0 m/s | - | - |
| 1777987543 | 14.44° C | 86% | 1010.4 hPa | 0 mm | 0.89 m/s, 271° | - | - |
| 1777987241 | 13.89° C | 87% | 1010.3 hPa | 0 mm | 0 m/s | - | - |
| 1777986937 | 13.89° C | 89% | 1010.4 hPa | 0 mm | 0.89 m/s, 278° | - | - |
| 1777986635 | 13.89° C | 89% | 1010.2 hPa | 0 mm | 0 m/s | - | - |
| 1777986333 | 13.89° C | 89% | 1009.9 hPa | 0 mm | 0.89 m/s, 290° | - | - |
| 1777986031 | 13.89° C | 90% | 1010.1 hPa | 0 mm | 0.89 m/s, 272° | - | - |
| 1777985727 | 13.33° C | 90% | 1009.9 hPa | 0 mm | 0.45 m/s, 261° | - | - |
| 1777985424 | 13.33° C | 91% | 1009.9 hPa | 0 mm | 0.89 m/s, 269° | - | - |
| 1777985121 | 13.33° C | 91% | 1010 hPa | 0 mm | 0.89 m/s, 281° | - | - |
| 1777984817 | 13.33° C | 91% | 1010 hPa | 0 mm | 0.45 m/s, 273° | - | - |
| 1777984514 | 13.89° C | 91% | 1010 hPa | 0 mm | 0.45 m/s, 248° | - | - |
| 1777984210 | 13.89° C | 90% | 1009.4 hPa | 0 mm | 0.89 m/s, 257° | - | - |
| 1777983907 | 13.89° C | 90% | 1009.5 hPa | 0 mm | 0.89 m/s, 302° | - | - |
| 1777983604 | 13.89° C | 90% | 1009.7 hPa | 0 mm | 0.89 m/s, 284° | - | - |
| 1777983301 | 13.89° C | 90% | 1009.7 hPa | 0 mm | 0 m/s | - | - |
| 1777982997 | 13.33° C | 89% | 1009.6 hPa | 0 mm | 0.45 m/s, 265° | - | - |
| 1777982693 | 13.33° C | 89% | 1009.5 hPa | 0 mm | 0 m/s | - | - |
| 1777982392 | 13.33° C | 89% | 1009.5 hPa | 0 mm | 0 m/s | - | - |
* Rain latest hour (hover to see other rain measurements)
** Current wind speed in m/s (hover to see current wind gust speed)